Location: Barcelona
(41.3830°N, 2.1830°E)
Time: 08:43:29
(UTC+02:00)

ISS - Pass Details

Date: 11 October 2019
Orbit: 411 x 421 km, 51.6° (Epoch: 14 October)

Event Time Altitude Azimuth Distance (km) Brightness Sun altitude
Rises 20:31:21 0° 288° (WNW) 2,342 1.7 -14.7°
Reaches altitude 10° 20:34:20 10° 258° (WSW) 1,475 0.2 -15.3°
Maximum altitude 20:35:53 13° 230° (SW) 1,314 -0.6 -15.5°
Drops below altitude 10° 20:37:26 10° 202° (SSW) 1,469 -0.8 -15.8°
Sets 20:40:24 0° 172° (S) 2,325 -0.1 -16.4°
